COSMOS 1536

Last updated on Fri Dec 19 2025 00:02:16 GMT+0000 (Coordinated Universal Time)

1 14699U 84013A 25352.58981153 .00004836 00000+0 20636-3 0 9992 2 14699 82.5442 188.3621 0013918 203.6201 156.4399 15.22582072260279
UTC large
Height (km)
Speed (km/s)
/
Latitude / Longitude
Inclination (degrees)
Orbital Period (minutes)
Azimuth
Elevation
Range (km)
Doppler Factor

Next 0 passes for location: London (51.5072 / 0.1276)

Sorry there are no passes over London.